Theta_e
323 322 323 324 324 324 325 325 324 324 324 323 323 323 324 325 323 315 307 315 319 329 324 315 312 311 311 309 311 309 296 293 296 297 298 302 299 304 305 303 303 306 304 308 312
323 323 324 324 324 324 324 324 324 324 323 323 323 325 324 323 312 308 323 333 330 332 313 310 307 308 304 305 306 301 297 298 301 300 299 302 301 301 300 301 301 303 307 310 310
323 322 322 323 324 324 324 324 324 323 323 323 324 325 323 320 309 308 331 332 333 329 316 311 310 308 303 305 303 302 296 302 302 304 304 301 301 303 299 298 302 301 305 307 307
322 322 322 321 323 323 323 323 323 323 323 324 324 324 323 314 299 309 331 333 334 321 313 309 307 303 301 300 303 297 301 303 303 303 302 299 302 299 300 301 304 304 306 307 306
321 320 320 320 320 322 323 323 323 323 324 324 323 323 314 306 305 315 327 327 317 317 309 307 304 303 300 300 301 297 299 302 302 302 301 302 299 299 299 303 305 306 305 306 306
321 320 319 319 319 320 322 323 323 323 324 323 323 320 309 299 309 312 311 313 313 312 308 307 305 304 301 300 298 300 300 300 301 302 301 298 298 299 301 304 304 304 303 304 306
320 320 319 319 319 321 322 322 322 323 323 322 322 313 305 303 310 310 310 309 310 310 307 308 308 303 303 299 302 300 295 298 299 300 299 300 295 296 301 304 303 303 303 304 305
318 318 318 319 320 320 320 320 321 322 322 321 321 312 302 311 310 309 310 308 310 310 310 309 310 305 302 302 300 295 295 290 298 300 299 297 290 300 302 302 301 303 303 303 304
317 317 317 318 319 319 320 319 320 321 320 320 312 308 300 311 306 308 310 307 307 307 308 308 309 302 301 294 292 294 288 291 295 299 298 295 292 300 301 300 300 302 302 303 303
315 315 316 317 319 319 319 319 319 319 317 313 309 302 305 303 307 308 309 309 306 305 305 303 300 296 295 292 286 289 289 292 293 296 297 294 293 298 301 300 299 299 301 302 303
314 314 315 316 318 319 316 315 310 305 307 303 303 304 305 306 309 306 308 306 306 303 296 299 293 290 294 295 296 295 292 291 294 297 294 293 294 297 300 300 300 300 300 301 303
312 313 314 315 317 319 314 309 307 308 300 309 306 306 307 307 302 305 308 300 300 295 298 296 291 297 300 299 296 294 292 291 295 297 293 293 293 297 299 300 301 301 300 302 302
311 312 313 314 317 317 312 309 314 314 302 306 307 306 304 305 302 302 303 301 298 296 296 293 297 300 299 296 294 293 291 291 291 295 293 290 288 293 298 300 301 301 300 302 303
310 311 311 313 314 314 310 315 315 315 296 299 300 303 304 305 300 307 305 303 299 295 297 296 300 298 296 294 295 290 295 295 294 290 284 291 282 290 295 297 297 298 298 300 300
309 309 310 312 313 311 313 316 316 311 284 301 300 308 305 301 301 301 305 302 296 297 295 294 295 293 294 295 296 292 295 293 292 288 287 287 284 288 292 292 295 295 297 299 300
309 309 310 317 317 315 317 317 313 296 283 298 301 299 298 300 301 301 300 302 301 297 297 296 298 296 296 297 295 296 292 291 290 287 280 287 286 285 290 294 295 295 296 298 298
308 309 307 314 312 317 317 312 294 286 297 295 298 300 299 298 298 298 296 293 292 286 288 294 295 296 297 292 293 292 288 281 280 279 280 288 285 289 293 294 296 295 295 296 298
308 309 314 316 318 317 314 302 284 291 292 299 299 299 295 298 298 298 295 292 295 294 290 288 285 295 296 293 291 289 289 282 278 278 281 287 281 288 296 296 296 296 296 296 295
308 307 315 315 317 315 306 291 289 293 296 295 295 291 292 297 296 295 294 294 296 297 289 288 288 293 295 295 294 290 285 291 285 286 280 284 288 293 293 293 294 293 294 293 294
302 308 309 315 317 312 300 293 296 298 298 296 289 291 287 290 292 292 292 294 295 297 297 292 287 293 292 293 292 290 291 284 284 277 276 280 281 283 289 287 293 293 291 293 292
303 302 309 315 314 305 294 295 296 300 299 295 293 292 292 291 292 291 291 294 294 296 295 292 289 288 290 287 288 287 285 287 287 285 279 278 279 281 278 279 278 279 283 292 290
300 293 310 311 300 299 293 295 297 297 298 296 296 294 289 291 289 291 291 291 293 294 290 293 289 284 287 293 294 292 290 289 284 281 283 284 281 277 276 276 276 277 281 287 288
296 297 306 307 290 291 291 291 294 293 292 291 291 290 289 288 285 289 289 294 291 290 288 291 288 283 284 288 293 290 290 292 291 289 284 282 282 276 274 274 275 275 277 284 284
295 288 292 296 290 284 282 283 284 290 291 289 289 290 286 283 287 285 286 291 291 289 292 291 287 286 282 283 286 286 285 281 285 283 282 282 279 270 271 271 272 274 275 275 276
291 288 287 282 283 283 284 283 282 282 286 285 284 284 280 277 277 278 282 283 286 288 290 288 280 283 282 283 285 280 275 273 273 270 270 269 266 267 270 270 271 272 273 273 274
286 283 286 284 285 283 284 282 281 281 282 281 280 281 281 278 279 276 279 278 277 282 281 284 278 277 275 280 282 270 271 272 268 267 269 270 267 269 271 272 270 270 271 270 270
289 291 286 285 282 281 281 280 280 282 283 284 282 280 279 281 282 283 283 283 281 278 277 277 274 271 268 278 280 271 267 267 265 265 266 262 265 268 267 269 268 269 269 268 269
Wind_Speed
10 8 8 8 8 8 8 7 7 7 9 8 8 7 8 8 10 5 8 1 8 8 2 6 6 7 7 4 2 2 3 5 7 4 3 5 1 5 3 5 1 4 4 7 12
13 11 10 9 8 8 7 6 6 7 8 8 7 7 7 7 8 12 6 12 12 9 5 8 9 7 5 6 4 3 3 5 2 4 5 4 4 4 4 6 5 5 7 11 10
15 14 12 11 9 8 7 6 6 7 7 7 7 8 7 7 6 2 10 12 10 8 7 6 5 7 7 5 6 7 5 3 4 7 7 5 5 5 4 7 10 11 12 13 10
17 16 15 12 11 9 8 7 7 6 6 6 7 7 8 4 3 5 9 9 8 7 6 5 5 4 6 8 10 5 9 9 6 4 2 4 4 6 8 10 4 3 2 17 15
19 18 16 14 11 10 8 8 8 6 6 5 6 6 5 6 5 9 10 8 6 5 8 7 7 8 7 4 4 8 8 9 5 3 5 8 9 7 11 10 9 8 5 13 14
19 20 18 15 12 10 8 7 7 7 6 5 4 4 4 6 6 10 8 6 7 7 8 7 5 3 7 7 6 6 6 10 7 8 6 5 6 4 6 9 11 10 10 9 13
21 20 20 18 14 11 8 6 6 6 6 5 3 3 6 10 3 8 8 6 6 5 7 7 4 2 5 6 7 5 8 9 12 10 5 5 8 14 18 6 6 8 9 11 10
23 21 20 18 16 12 9 7 6 5 5 4 2 4 7 2 0 6 8 5 4 3 3 6 1 5 4 6 4 4 6 4 4 12 5 7 9 8 12 11 11 10 8 10 13
23 23 22 20 17 13 10 7 5 4 4 3 3 4 6 0 4 9 7 6 6 4 2 2 2 3 5 3 5 8 6 8 4 6 6 8 7 4 3 3 8 9 10 10 9
25 24 23 21 18 13 9 2 4 5 3 5 6 3 5 4 4 5 3 5 4 7 4 4 4 3 4 5 7 6 5 8 7 10 8 8 16 13 11 7 10 11 10 10 11
25 25 24 22 19 13 5 3 2 2 5 9 9 6 5 4 3 4 5 6 3 4 5 6 4 11 12 14 15 11 12 10 12 5 7 11 12 15 11 11 13 12 11 11 11
26 25 25 23 21 13 3 3 3 1 9 15 18 10 3 4 4 8 7 7 6 8 9 3 11 14 12 11 7 8 10 12 11 4 5 8 12 14 14 15 15 13 10 11 9
26 25 26 25 19 6 5 4 2 3 5 1 2 4 5 6 6 12 9 6 6 9 10 12 7 3 8 12 8 11 10 11 11 4 6 5 8 11 14 13 16 12 3 4 9
26 25 25 30 4 2 3 1 2 2 4 4 3 3 3 4 5 2 9 4 6 8 10 13 15 19 11 8 8 12 6 6 9 4 5 4 10 8 12 16 7 9 8 7 6
27 27 25 16 6 3 3 2 2 2 6 4 4 1 2 4 4 1 4 2 8 7 3 7 5 4 6 14 8 9 2 2 3 4 7 5 6 7 5 7 10 9 8 8 8
28 26 22 1 4 3 4 4 2 2 9 4 5 4 4 6 4 4 4 2 1 6 10 13 2 3 6 2 1 5 2 2 1 1 6 11 11 5 7 10 3 9 10 9 7
30 26 14 5 3 5 4 3 2 5 1 4 1 3 5 4 6 8 6 7 6 3 7 8 21 6 5 3 2 3 3 3 3 1 10 7 9 14 3 2 6 8 8 9 7
30 25 2 3 5 5 3 3 5 6 5 3 1 4 5 3 6 9 5 9 13 9 5 4 7 15 8 11 7 8 9 7 7 6 5 5 8 8 8 7 9 9 10 9 7
26 3 2 5 5 3 3 4 3 6 6 10 11 7 6 8 4 5 10 10 8 15 9 5 7 5 5 3 6 5 6 7 7 10 4 6 10 10 4 3 5 6 7 7 8
6 3 3 6 4 3 2 4 6 11 10 8 7 7 12 13 4 6 6 3 1 1 5 4 13 4 4 4 3 1 3 2 3 5 7 7 5 5 16 22 16 13 3 6 8
2 0 3 6 2 3 2 4 5 13 15 10 14 15 17 18 18 18 13 8 18 11 6 5 4 5 7 7 8 3 3 5 3 7 7 8 4 12 18 20 21 22 23 9 9
4 3 4 5 2 2 4 8 9 11 14 8 7 8 6 12 8 10 12 11 19 13 9 10 6 8 13 9 10 12 13 15 12 14 6 13 7 12 18 20 23 24 24 14 18
4 2 4 4 4 5 7 6 3 7 7 9 7 7 8 6 7 9 8 9 17 16 12 13 6 9 11 8 16 13 4 14 15 8 16 12 7 16 21 24 25 25 26 20 18
3 3 5 4 5 4 5 5 7 6 4 3 3 3 4 4 5 6 11 9 15 10 6 6 5 6 5 5 7 5 13 13 7 5 9 6 10 28 26 24 21 22 19 19 19
6 3 3 4 5 7 6 5 8 8 9 7 1 4 7 5 16 11 14 12 10 17 4 5 5 8 17 16 15 12 11 13 7 6 4 9 10 16 17 15 16 17 18 19 19
4 4 5 3 5 7 7 9 8 11 8 7 8 14 14 12 14 12 14 7 9 9 9 5 5 14 17 15 15 15 16 7 12 9 6 8 4 15 14 10 14 15 15 16 15
4 2 2 4 5 5 6 10 10 11 7 8 14 15 13 12 13 15 15 18 18 16 17 14 4 3 8 10 12 4 14 10 13 14 6 9 8 14 15 11 11 12 12 13 12
Wind_Direction
359 341 331 314 303 296 290 296 295 286 277 283 288 293 295 306 301 222 243 122 140 137 149 169 203 207 240 223 257 281 288 270 281 356 55 110 228 135 65 324 98 130 24 104 127
6 354 341 326 315 301 300 299 294 285 285 286 291 290 301 326 268 253 160 122 133 148 196 188 194 187 209 212 186 212 233 258 62 4 343 35 195 266 169 220 253 179 92 114 127
8 2 351 339 326 314 307 300 293 283 280 283 288 291 313 312 267 202 131 132 146 170 270 265 257 183 227 208 203 206 230 276 334 32 357 291 285 211 267 251 234 205 175 157 160
5 3 357 345 332 325 310 297 280 272 274 279 287 307 314 248 304 106 137 135 158 202 231 219 236 195 227 214 212 249 245 252 291 102 278 249 284 278 234 225 301 22 35 163 173
4 360 355 350 339 325 311 291 277 269 265 273 293 322 301 230 256 140 134 143 168 207 215 215 223 215 257 240 244 215 252 267 286 251 219 269 263 245 261 255 242 192 166 174 183
358 358 356 350 344 332 315 294 279 272 264 264 283 319 243 254 107 145 144 156 184 207 214 230 234 313 297 282 282 338 315 295 285 217 216 234 259 246 242 224 235 228 186 194 190
358 356 355 353 345 335 326 304 281 262 256 267 293 279 260 244 114 140 151 189 193 226 246 224 313 275 347 260 334 317 292 273 236 205 228 53 275 230 240 187 215 225 209 190 204
355 354 352 349 340 330 317 294 261 240 242 262 283 266 257 9 144 162 182 137 174 190 299 34 348 270 269 350 265 236 235 277 331 147 153 137 268 276 239 195 223 213 223 200 200
354 350 348 345 341 328 315 296 228 208 211 194 220 220 263 216 200 201 173 172 151 126 100 160 221 230 130 227 274 212 259 226 218 163 121 176 269 304 90 207 234 218 215 210 205
350 346 344 343 338 328 318 350 147 144 207 196 264 316 201 234 126 148 168 152 172 141 158 202 218 221 200 203 226 228 226 265 241 217 202 189 252 257 271 224 230 230 225 207 202
349 344 341 341 337 329 302 183 198 174 211 211 202 227 149 81 121 185 168 171 198 212 206 199 197 217 211 215 240 272 288 283 285 177 166 228 247 263 250 246 245 232 220 218 210
347 344 338 339 332 320 281 28 54 266 294 242 243 243 119 192 164 172 172 185 191 212 217 175 237 244 253 263 264 274 266 259 283 259 177 269 263 270 270 251 242 241 230 219 206
346 343 337 336 324 312 69 58 332 285 263 242 18 232 179 180 226 180 182 201 209 225 229 222 222 69 238 249 232 250 245 263 259 270 210 274 272 255 259 249 242 243 183 182 181
344 342 338 331 322 330 95 32 290 295 279 180 174 122 142 241 232 68 201 230 228 239 231 249 248 247 240 240 226 248 238 264 258 249 240 115 286 252 277 276 218 207 182 158 120
341 338 335 330 306 312 30 320 302 225 326 89 132 69 84 220 128 138 24 105 250 214 236 238 210 223 237 237 228 263 94 310 309 272 319 239 270 265 206 284 277 193 177 159 146
336 333 335 86 240 31 324 307 238 233 248 140 119 168 185 198 190 126 199 281 14 273 259 254 149 240 227 77 46 120 131 197 216 186 261 218 203 260 221 233 276 106 108 97 79
331 322 319 304 348 332 316 244 264 216 265 134 114 170 243 189 207 185 180 187 204 190 220 234 237 195 183 211 100 181 152 297 281 178 236 206 207 242 303 139 133 136 128 117 116
327 314 185 9 349 335 275 242 243 281 286 131 132 263 237 303 206 188 244 233 215 254 300 252 308 179 173 212 179 179 179 176 228 208 272 63 234 251 240 86 93 77 132 121 113
321 309 45 14 341 312 270 216 271 16 8 354 316 249 251 211 205 194 217 249 260 197 208 261 242 32 157 145 157 181 195 241 299 287 278 238 274 301 70 99 98 115 108 126 121
321 296 40 335 334 274 260 299 358 31 356 344 314 311 306 307 216 206 218 25 237 31 329 259 293 229 102 73 291 187 313 98 227 251 222 263 257 264 29 8 19 12 305 146 110
240 295 339 332 284 239 254 357 9 14 28 347 338 317 312 314 310 305 291 333 357 339 342 353 253 252 118 197 169 168 236 218 252 219 233 263 254 2 28 21 9 353 348 14 77
300 60 345 326 262 197 29 347 342 5 19 0 10 356 3 348 327 313 305 21 4 4 10 338 287 273 243 255 208 216 223 215 225 240 233 236 228 40 37 25 14 3 342 348 57
360 311 18 340 34 22 8 338 324 21 31 7 341 35 23 334 317 332 346 12 25 14 0 349 303 277 294 240 247 258 335 355 335 291 253 260 238 39 36 29 14 16 10 26 39
332 17 360 42 80 9 3 318 352 1 94 2 262 168 337 313 263 305 313 323 331 305 275 345 297 307 301 8 339 308 2 359 337 265 304 268 320 6 9 17 16 13 16 23 31
6 63 26 346 7 342 321 313 356 353 11 307 114 352 14 315 311 277 328 319 308 296 239 168 266 311 302 295 300 25 17 41 57 354 43 13 65 2 356 14 16 14 17 20 20
42 2 345 307 328 340 314 48 356 356 331 316 329 338 325 302 295 323 317 312 279 307 350 319 286 323 288 280 262 91 35 51 53 15 22 68 74 359 348 23 20 20 22 19 13
353 357 277 312 355 340 42 1 331 335 307 333 332 311 304 311 328 301 285 274 262 275 283 277 255 344 268 302 321 87 20 74 81 37 5 41 351 337 343 17 25 15 15 18 8